Location: Casa del Quejigal
(40.4571°N, 4.3521°W)
Time: 21:29:36
(UTC+00:00)

Daily predictions for brighter satellites

Satellite Brightness Start Highest point End
(mag) Time Altitude Azimuth Time Altitude Azimuth Time Altitude Azimuth
ATLAS 2AS CENTAUR R/B 3.9 18:25:12 10° SSE 18:31:19 25° ESE 18:37:28 10° ENE
Cosmos 1025 Rocket 4.0 18:32:09 10° NNE 18:35:55 27° ENE 18:39:40 10° SE
ATLAS 3B R/B 4.5 18:33:01 10° N 18:36:47 15° NNE 18:40:37 10° ENE
IRS-1C Rocket 4.3 18:32:15 10° S 18:37:30 80° WSW 18:42:47 10° NNW
Abrixas rocket 3.9 18:37:17 10° NW 18:39:23 18° N 18:41:28 10° ENE
SKYMED 2 4.0 18:36:00 10° N 18:40:21 70° WNW 18:44:38 10° SSW
Cosmos 1125 Rocket 4.1 18:39:31 10° SSE 18:44:19 36° E 18:49:10 10° NE
Okean 2 4.3 18:40:31 10° NNW 18:44:36 55° W 18:48:38 10° S
Cosmos 1867 3.9 18:45:23 10° NW 18:50:50 73° WSW 18:56:15 10° SSE
CZ-2D R/B 3.4 18:47:09 10° S 18:51:01 83° WSW 18:54:55 10° NNW
CZ-4 R/B 1.4 18:46:53 10° SSE 18:51:05 79° ENE 18:55:16 10° N
Cosmos 2150 Rocket 4.1 18:45:50 10° S 18:51:09 65° ESE 18:56:33 10° NNE
Cosmos 1464 Rocket 4.0 18:46:50 10° S 18:52:50 61° E 18:58:54 10° NNE
CZ-2C R/B 3.3 18:48:01 10° SSE 18:53:12 55° ENE 18:58:40 10° N
Okean-O 2.7 18:50:30 10° S 18:54:55 82° WSW 18:59:23 10° NNW
Cosmos 2285 Rocket 4.4 18:49:12 10° SSE 18:54:57 39° E 19:00:46 10° NE
USA 238 DEB 4.1 18:48:02 10° NNW 18:55:09 56° NE 19:02:32 10° SE
USA 238 4.1 18:48:09 10° NNW 18:55:16 56° NE 19:02:38 10° SE
Cosmos 1674 4.0 18:55:04 10° NNE 18:58:01 21° ENE 19:00:17 13° ESE
MOS 1 Rocket 3.3 19:01:05 10° NNE 19:05:15 44° E 19:09:19 10° S
ARGOS 3.5 19:03:50 10° SE 19:08:52 43° ENE 19:13:56 10° N
In-Cosmos 22 4.0 19:07:06 10° N 19:12:27 72° E 19:17:51 10° SSE
Cosmos 1048 Rocket 4.0 19:08:01 10° NNW 19:13:20 64° ENE 19:18:39 10° SSE
Cosmos 1733 4.4 19:13:48 21° E 19:14:07 21° E 19:17:02 10° NE
Cosmos 2151 Rocket 3.5 19:10:15 10° S 19:14:41 73° E 19:19:11 10° NNE
CZ-2C R/B 3.4 19:10:41 10° NE 19:15:35 31° E 19:20:30 10° SSE
HJ-1C 3.2 19:12:33 10° SSE 19:15:48 65° ENE 19:19:05 10° N
IRIS 4.3 19:12:07 10° WSW 19:16:34 80° SSE 19:18:07 26° E
NOSS 3-2 (A) 4.1 19:12:03 10° NNW 19:19:46 83° ENE 19:28:22 10° SE
Shenzhou-11 Module 0.8 19:18:20 10° WSW 19:20:26 69° SSE 19:20:33 66° SE
BREEZE-M DEB (TANK) 3.0 19:18:53 10° NW 19:21:59 67° NNE 19:27:36 19° ESE
Meteor 1-15 Rocket 4.2 19:19:44 10° S 19:25:16 63° E 19:30:56 10° NNE
Cosmos 1805 3.5 19:22:12 10° SSE 19:25:53 42° E 19:29:37 10° NNE
Cosmos 494 Rocket 4.1 19:20:57 10° N 19:26:07 53° ENE 19:29:53 18° SE
ATLAS 5 CENTAUR R/B 3.7 19:23:11 10° NW 19:26:49 51° SW 19:38:41 10° SSE
Milstar 3 Cent rocket 3.7 19:23:21 10° SW 19:29:53 26° S 19:32:39 18° SE
SL-08 RB Rocket 4.0 19:27:52 20° SE 19:30:46 46° ENE 19:35:07 10° N
Ariane Rocket 3.5 19:28:06 22° ESE 19:30:46 39° ENE 19:35:29 10° N
H-2A R/B 2.0 19:27:06 10° SSE 19:32:05 87° WSW 19:37:13 10° NNW
USA 234 4.2 19:38:13 24° ESE 19:38:21 24° ESE 19:43:27 10° S
KORONAS-FOTON 3.7 19:35:48 10° N 19:39:43 64° E 19:41:31 29° SSE
Nadezhda 4 Rocket 3.9 19:33:39 10° N 19:39:48 87° E 19:45:57 10° S
USA 186 2.0 19:42:34 48° NE 19:42:34 48° NE 19:45:28 10° N
Cosmos 1626 3.7 19:40:10 10° NNE 19:42:02 22° NE 19:42:02 22° NE
Cosmos 1844 Rocket 3.6 19:38:39 10° SW 19:44:01 50° WNW 19:49:28 10° NNE
CZ-2C R/B 3.1 19:41:56 10° WSW 19:44:17 16° SSW 19:45:20 14° S
ISS -1.0 19:44:22 10° NW 19:46:07 13° N 19:47:46 10° NNE
COSMOS 2406 4.0 19:41:54 10° N 19:46:58 32° ENE 19:47:56 30° ENE
Cosmos 2278 Rocket 3.2 19:43:12 10° SSE 19:51:32 18° NE 19:53:14 10° NE
IRS-1A Rocket 4.3 19:47:48 23° SE 19:51:29 64° ENE 19:57:15 10° N
Cosmos 1844 4.4 19:46:06 10° SW 19:51:40 54° WNW 19:57:13 10° NNE
Meteor 1-22 Rocket 4.4 19:47:27 10° S 19:53:08 54° E 19:59:01 10° NNE
Lacrosse 4 Rocket 3.8 19:52:38 10° NNE 19:52:52 10° NNE 19:52:52 10° NNE
Cosmos 2034 Rocket 4.5 19:47:40 10° SSW 19:53:58 63° W 20:00:16 10° N
Exosat Rocket 3.9 19:50:41 10° SSW 19:56:14 66° WNW 20:01:12 10° NNE
Meteor 2-5 Rocket 3.7 19:52:19 10° N 19:58:00 67° E 20:00:46 31° SSE
NOSS 3-2 (C) 4.1 19:50:19 10° NW 19:58:04 90° NNE 20:03:38 25° SSE
Okean 1 Rocket 3.1 19:53:55 10° S 19:58:24 82° W 20:02:54 10° N
NOSS 3-4 (A) 3.3 19:53:15 10° SW 19:59:06 85° WNW 20:05:21 10° NNE
NOSS 3-4 (C) 3.3 19:53:20 10° SW 19:59:13 86° NW 20:05:27 10° NE
Meteor 1-24 Rocket 3.8 19:54:48 10° N 20:00:19 53° ENE 20:01:38 44° ESE
Resurs 01 Rocket 3.5 20:03:26 18° NNE 20:03:26 18° NNE 20:05:07 10° NNE
SL-14 R/B 4.5 19:59:36 10° N 20:01:54 30° NNE 20:01:54 30° NNE
Meteor 2-13 Rocket 4.3 19:57:40 10° N 20:03:52 87° E 20:08:36 18° S
Cosmos 1766 3.5 20:03:44 10° SSW 20:07:38 70° W 20:11:35 10° N
Cosmos 1833 Rocket 3.4 20:06:53 10° N 20:11:54 37° NE 20:11:54 37° NE
Abrixas rocket 4.3 20:12:14 10° NW 20:13:27 22° NW 20:13:27 22° NW
CENTAUR R/B 3.3 20:08:38 10° NW 20:16:55 77° WSW 20:22:00 29° SSE
SPOT 3 Rocket 3.9 20:20:50 47° NE 20:20:50 47° NE 20:25:04 10° N
Cosmos 1634 Rocket 3.9 20:15:24 10° S 20:21:34 86° W 20:27:48 10° N
ATLAS 2AS CENTAUR R/B 3.2 20:13:44 10° SW 20:21:39 75° NW 20:29:35 10° NNE
SJ-6B 3.6 20:24:09 48° NW 20:24:09 48° NW 20:27:05 10° NNW
ATLAS 3B R/B 2.9 20:22:28 10° NNW 20:29:10 51° NE 20:29:50 49° ENE
Gbstr 26 Del rocket 4.4 20:29:30 10° SSW 20:35:23 55° SSE 20:35:23 55° SSE
Cosmos 2026 Rocket 4.3 20:38:09 10° NNW 20:44:27 64° W 20:46:52 38° SSW
CZ-2C R/B 4.2 20:50:48 10° N 20:55:51 36° WNW 21:00:55 10° SW
Lacrosse 5 rocket 4.0 20:54:54 10° NNW 20:56:20 15° N 20:56:20 15° N
Cosmos 2279 Rocket 4.1 20:57:29 68° WSW 20:58:02 72° W 21:04:19 10° N
Cosmos 2082 Rocket 3.4 20:59:49 10° NNW 21:03:08 34° N 21:03:08 34° N
Cosmos 2278 Rocket 3.7 21:27:07 10° WSW 21:33:01 33° NW 21:37:21 10° N
Resurs 01 Rocket 4.5 21:41:01 15° NW 21:41:01 15° NW 21:41:54 10° NNW
ATLAS 3B R/B 4.4 22:13:31 10° NW 22:17:06 27° WNW 22:17:06 27° WNW
